SCP
0 0 0 0 0 0 0 0 0 0 0 0 0 0 0 0 0 0 0 0 0 0 0 0 0 0 0 0 0 0 0 0 0 0 0 0 0 0 0 0 0 0 0 0
0 0 0 0 0 0 0 0 0 0 0 0 0 0 0 0 0 0 0 0 0 0 0 0 0 0 0 0 0 0 0 0 0 0 0 0 0 0 0 0 0 0 0 0
0 0 0 0 0 0 0 0 0 0 0 0 0 0 0 0 0 0 0 0 0 0 0 0 0 0 0 0 0 0 0 0 0 -0 0 0 0 0 0 0 0 0 0 0
0 0 0 0 0 0 0 0 0 0 0 0 0 0 0 0 0 0 0 0 0 0 0 0 0 0 0 0 0 0 0 0 0 0 0 0 0 0 0 0 0 0 0 0
0 0 0 0 0 0 0 0 0 0 0 0 0 0 0 0 0 0 0 0 0 0 0 0 0 0 0 0 0 0 0 0 0 0 0 0 0 0 0 0 0 0 0 0
0 0 0 0 0 0 0 0 0 0 0 0 0 0 0 0 0 0 0 0 0 0 0 0 0 0 0 0 0 0 0 0 0 0 0 0 0 0 0 0 0 0 0 0
0 0 0 0 0 0 0 0 0 0 0 0 0 0 0 0 0 0 0 0 0 0 0 0 0 0 0 0 0 0 0 0 0 0 0 0 0 0 0 0 0 0 0 0
0 0 0 0 0 0 0 0 0 0 0 0 0 0 0 0 0 0 0 0 0 0 0 0 0 0 0 0 0 0 0 0 0 0 0 0 0 0 0 0 0 0 0 0
0 0 0 0 0 0 0 0 0 0 0 0 0 0 0 0 0 0 0 0 0 0 0 0 0 0 0 0 0 0 0 0 0 0 0 0 0 0 0 0 0 0 0 0
0 0 0 0 0 0 0 0 0 0 0 0 0 0 0 0 0 0 0 0 0 0 0 0 0 0 0 0 0 0 0 0 0 0 0 0 0 0 0 0 0 0 0 0
0 0 0 0 0 0 0 0 0 0 0 0 0 0 0 0 0 0 0 0 0 0 0 0 0 0 0 0 0 0 0 0 0 0 0 0 0 0 0 0 0 0 0 0
0 0 0 0 0 0 0 0 0 0 0 0 0 0 0 0 0 0 0 0 0 0 0 0 0 0 0 0 0 0 0 0 0 0 0 0 0 0 0 0 0 0 0 0
0 0 0 0 0 0 0 0 0 0 0 0 0 0 0 0 0 0 0 0 0 0 0 0 0 0 0 0 0 0 0 0 0 0 0 0 0 0 0 0 0 0 0 0
0 0 0 0 0 0 0 0 0 0 0 0 0 0 0 0 0 0 0 0 0 0 0 0 0 0 0 0 0 0 0 0 0 0 0 0 0 0 0 0 0 0 0 0
0 0 0 0 0 0 0 0 0 0 0 0 0 0 0 0 0 0 0 0 0 0 0 0 0 0 0 0 0 0 0 0 0 0 0 0 0 0 0 0 0 0 0 0
0 0 0 0 0 0 0 0 0 0 0 0 0 0 0 0 0 0 0 0 0 0 0 0 0 0 0 0 0 0 0 0 0 0 0 0 0 0 0 0 0 0 0 0
0 0 0 0 0 0 0 0 0 0 0 0 0 0 0 0 0 0 0 0 0 0 0 0 0 0 0 0 0 0 0 0 0 0 0 0 0 0 0 0 0 0 0 0
0 0 0 0 0 0 0 0 0 0 0 0 0 0 0 0 0 0 0 0 0 0 0 0 0 0 0 0 0 0 0 0 0 0 0 0 0 0 0 0 0 0 0 0
0 0 0 0 0 0 0 0 0 0 0 0 0 0 0 0 0 0 0 0 0 0 0 0 0 0 0 0 0 0 0 0 0 0 0 0 0 0 0 0 0 0 0 0
0 0 0 0 0 0 0 0 0 0 0 0 0 0 0 0 0 0 0 0 0 0 0 0 0 0 0 0 0 0 0 0 0 0 0 0 0 0 0 0 0 0 0 0
0 0 0 0 0 0 0 0 0 0 0 0 0 0 0 0 0 0 0 0 0 0 0 0 0 0 0 0 0 0 0 0 0 0 0 0 0 0 0 0 0 0 0 0
0 0 0 0 0 0 0 0 0 0 0 0 0 0 0 0 0 0 0 0 0 0 0 0 0 0 0 0 0 0 0 0 0 0 0 0 0 0 0 0 0 0 0 0
0 0 0 0 0 0 0 0 0 0 0 0 0 0 0 0 0 0 0 0 0 0 0 0 0 0 0 0 0 0 0 0 0 0 0 0 0 0 0 0 0 0 0 0
0 0 0 0 0 0 0 0 0 0 0 0 0 0 0 0 0 0 0 0 0 0 0 0 0 0 0 0 0 0 0 0 0 0 0 0 0 0 0 0 0 0 0 0
0 0 0 0 0 0 0 0 0 0 0 0 0 0 0 0 0 0 0 0 0 0 0 0 0 0 0 0 0 0 0 0 0 0 0 0 0 0 0 0 0 0 0 0
0 0 0 0 0 0 0 0 0 0 0 0 0 0 0 0 0 0 0 0 0 0 0 0 0 0 0 0 0 0 0 0 0 0 0 0 0 0 0 0 0 0 0 0
0 0 0 0 0 0 0 0 0 0 0 0 0 0 0 0 0 0 0 0 0 0 0 0 0 0 0 0 0 0 0 0 0 0 0 0 0 0 0 0 0 0 0 0
Wind_Speed_500mb
72 64 60 62 64 61 59 30 6 35 37 9 4 8 11 2 9 1 7 9 7 10 6 7 5 9 4 3 3 7 2 10 5 3 4 5 5 7 9 9 6 3 6 11
71 65 63 67 70 68 62 19 11 30 39 8 3 6 4 3 5 4 5 6 5 6 9 10 5 5 2 2 3 11 10 3 6 12 11 7 4 5 8 11 6 10 10 11
70 65 65 72 74 72 56 25 6 7 14 9 14 9 7 3 4 3 9 9 10 9 8 11 10 6 2 3 5 10 8 6 10 14 9 6 7 7 7 10 6 8 12 7
66 63 68 78 77 75 49 17 8 15 7 4 6 8 13 8 5 3 7 9 7 9 8 5 7 4 4 7 6 5 6 7 5 4 6 3 3 9 12 13 9 11 8 13
62 64 71 80 80 77 44 18 12 10 9 34 12 4 12 14 4 6 5 12 4 4 11 12 17 12 7 8 5 6 6 5 4 3 8 11 6 10 13 9 7 14 6 13
63 64 73 81 83 79 39 17 21 22 3 8 11 11 13 15 12 9 6 16 10 6 3 9 25 15 21 13 11 5 6 9 6 7 8 9 12 18 18 11 10 14 12 16
59 62 71 77 83 80 42 24 22 11 4 6 12 14 6 10 6 14 6 13 11 20 57 54 45 49 45 41 26 10 9 8 5 4 6 4 11 3 11 13 10 11 5 9
55 61 69 74 80 78 45 26 16 10 4 6 5 14 13 28 19 9 8 6 17 46 11 9 10 10 11 10 14 15 8 9 7 7 6 12 9 9 13 14 14 17 13 11
53 59 65 70 75 79 44 21 23 8 25 10 13 12 13 10 8 6 8 16 57 5 10 8 9 8 9 2 4 11 10 12 8 5 8 12 11 4 11 9 10 18 27 27
51 56 61 64 70 76 49 25 18 9 14 11 23 8 15 18 13 8 10 17 8 5 5 6 6 6 7 8 10 5 5 6 9 4 5 15 11 8 8 11 13 22 40 48
50 55 57 61 65 63 47 24 19 11 14 15 13 15 19 21 19 10 21 11 2 7 7 7 7 6 9 4 8 12 14 13 8 6 4 15 19 7 14 10 12 25 42 46
48 52 54 58 60 55 57 18 17 21 16 25 31 24 18 15 16 28 32 11 11 14 9 2 6 4 3 5 5 3 5 12 9 17 11 8 33 11 27 9 11 22 37 41
47 47 46 49 51 51 51 42 30 27 43 28 18 24 23 19 19 21 16 11 16 14 13 17 5 6 8 8 11 5 8 12 5 4 8 22 29 44 41 21 23 20 26 35
42 42 42 43 43 39 35 39 33 24 21 13 8 15 17 16 17 14 13 15 27 27 16 10 6 6 16 6 6 6 8 14 9 10 21 19 35 36 41 37 28 22 29 28
40 38 38 38 38 37 36 36 25 26 8 13 15 22 19 16 12 12 13 20 26 17 10 6 5 10 8 3 4 6 18 13 9 12 18 12 16 19 22 28 27 27 27 26
42 38 38 38 38 36 34 15 17 20 23 15 5 9 11 17 16 18 21 17 13 9 8 6 9 8 7 6 6 17 22 29 28 12 13 17 20 17 17 22 23 25 25 25
39 38 36 33 32 32 13 14 22 20 17 9 8 5 6 11 11 9 8 9 7 5 7 5 8 7 8 5 8 5 6 15 18 19 17 11 14 5 16 17 20 26 24 27
34 33 31 29 25 29 29 27 24 22 12 9 7 3 5 7 4 4 3 5 6 9 5 5 6 9 5 6 11 14 14 12 10 8 5 7 11 19 21 25 32 36 27 13
32 31 29 27 18 12 18 21 17 12 8 10 6 9 7 5 6 6 5 5 6 1 2 3 5 2 7 5 15 15 12 9 8 3 5 13 24 30 36 37 32 22 11 9
34 33 10 10 16 32 25 9 5 5 8 8 8 7 5 4 5 6 5 8 2 2 5 2 3 4 9 22 18 19 23 15 15 20 31 37 44 42 29 24 19 4 7 9
24 8 11 30 27 9 7 8 11 10 9 9 6 6 7 5 5 4 4 4 2 1 7 5 2 4 7 16 20 19 16 18 19 21 35 28 30 28 20 10 2 7 14 17
14 22 33 18 7 9 11 4 3 3 6 3 5 7 8 6 5 10 5 6 2 7 8 2 4 2 14 20 28 32 32 34 37 37 38 32 24 17 9 9 14 17 19 22
34 10 9 4 6 9 8 10 2 3 9 10 8 5 6 6 5 10 4 6 6 14 3 5 1 20 27 32 35 42 40 42 39 32 24 16 8 7 11 13 15 20 23 26
7 6 8 4 4 4 3 2 5 6 8 15 14 11 5 4 5 4 6 2 4 6 6 5 1 24 24 23 28 29 32 26 22 16 9 7 8 9 11 15 20 25 29 30
9 8 5 4 9 9 11 14 12 11 16 18 15 11 5 5 5 2 5 3 3 4 5 0 17 25 24 23 23 31 24 14 10 9 9 10 12 15 18 21 25 31 36 41
9 10 9 17 11 6 10 17 16 17 20 17 9 5 4 3 3 4 4 6 7 5 2 15 23 21 21 22 26 19 11 9 9 10 11 13 16 21 25 29 32 36 40 46
8 8 19 18 21 12 9 11 9 17 9 3 6 6 6 4 5 1 1 7 4 27 24 17 13 12 18 24 18 7 5 4 7 10 12 16 21 26 32 41 46 49 50 52
Wind_Direction_500mb
197 194 189 186 185 181 177 179 133 171 166 101 82 162 195 268 272 170 85 98 103 140 122 92 117 160 178 354 238 105 62 121 119 197 265 239 196 150 133 114 200 78 140 274
193 192 187 186 183 181 171 174 118 166 174 140 213 262 190 219 298 360 106 111 103 80 123 102 119 126 348 9 85 163 178 32 68 355 350 337 193 116 102 104 88 192 137 262
189 189 186 185 181 180 173 171 98 133 179 154 146 154 147 258 287 47 81 117 92 100 69 28 144 135 13 55 100 108 107 105 157 187 199 169 174 163 142 123 122 184 224 248
187 186 186 183 181 180 178 180 181 160 183 215 179 138 161 176 180 97 52 54 78 137 114 77 110 127 127 63 126 66 96 128 115 69 6 344 235 184 175 185 186 178 239 212
184 187 184 181 180 180 187 159 143 136 147 154 129 155 191 162 130 41 51 110 79 66 148 178 190 143 185 185 62 79 14 152 119 187 0 23 294 263 216 222 211 265 268 275
185 185 182 181 181 181 185 167 148 171 106 118 118 197 170 193 128 45 74 147 105 62 134 102 109 115 111 118 131 114 79 123 93 261 357 345 328 223 205 197 187 158 191 227
181 181 181 181 182 183 183 177 160 134 176 147 182 169 144 146 175 142 78 112 98 125 113 101 89 78 74 67 44 71 117 93 70 186 17 353 240 250 213 207 205 192 187 192
176 177 178 181 183 182 188 184 176 155 123 175 125 138 117 106 87 79 86 56 132 139 117 67 51 354 20 16 37 23 66 116 90 138 202 299 287 194 168 173 265 192 191 146
172 173 176 180 183 184 185 194 187 176 128 225 144 138 160 136 117 52 76 110 153 118 74 74 130 192 206 256 40 45 58 64 111 106 144 221 242 253 165 115 296 201 172 166
165 168 172 176 180 186 190 195 197 194 116 137 152 142 163 140 114 106 126 142 188 64 70 82 135 225 183 178 174 185 28 14 159 125 224 288 241 183 138 99 238 177 191 187
159 164 167 172 176 178 186 195 199 183 117 108 153 141 154 151 149 134 155 91 297 50 71 120 204 144 216 128 172 175 173 158 197 100 72 277 177 109 166 217 184 188 197 204
152 154 161 164 165 174 183 203 179 138 119 118 113 116 143 162 149 139 159 161 154 153 91 68 102 130 138 134 234 82 238 192 181 186 215 240 198 229 217 242 232 214 212 212
146 145 150 156 161 161 163 196 162 143 112 103 107 94 102 135 148 154 137 165 161 162 132 145 150 138 135 164 235 202 246 174 207 85 256 238 246 239 251 262 258 260 222 205
142 142 139 145 155 164 174 169 155 147 120 108 87 107 100 96 140 143 158 184 166 151 142 112 138 144 193 199 189 180 210 153 178 260 276 270 265 253 256 258 248 215 195 196
136 139 133 139 144 147 156 154 134 146 134 132 121 103 77 84 102 154 135 153 157 149 123 101 191 143 125 59 63 252 191 187 169 230 250 238 273 285 267 242 216 195 189 175
135 136 135 136 138 143 144 100 110 118 109 107 101 121 112 111 113 133 145 155 153 149 139 140 144 142 157 134 205 258 239 244 256 281 294 259 269 280 251 212 191 192 186 157
134 135 138 140 144 151 123 122 136 131 116 95 80 33 117 147 141 123 115 130 119 113 117 87 129 136 157 130 218 312 312 301 285 279 274 262 256 256 180 182 175 159 147 139
134 135 135 135 131 119 99 109 126 134 107 90 108 281 112 150 129 105 96 118 119 60 106 124 116 128 117 240 269 316 332 330 312 218 296 297 176 153 155 155 146 137 125 134
134 132 127 120 114 86 105 110 118 125 99 106 88 134 207 147 96 80 76 84 63 51 103 100 128 108 225 311 336 336 349 337 329 193 90 130 136 126 128 127 114 118 122 194
137 134 96 90 104 118 115 77 81 76 49 66 84 115 112 115 95 66 85 32 82 78 258 124 126 241 309 351 333 308 285 292 188 150 116 129 117 116 109 93 88 135 196 253
133 98 67 117 117 93 77 67 49 8 31 35 67 81 123 99 108 134 48 141 96 116 269 187 281 263 17 49 61 59 80 134 148 144 121 114 102 92 92 117 143 288 297 300
119 111 109 111 79 63 74 36 51 59 190 91 98 96 94 98 110 98 125 127 127 238 149 105 239 89 104 103 91 92 98 100 95 94 95 96 94 85 52 341 318 314 313 310
127 108 117 90 36 81 150 166 212 167 175 161 147 83 96 113 87 90 113 163 214 129 168 220 94 120 119 120 97 93 94 98 101 102 98 91 72 354 336 330 321 314 309 306
92 71 75 73 102 68 110 75 95 129 141 140 130 92 92 98 84 121 160 147 130 206 213 220 132 140 149 127 110 119 120 112 106 99 80 48 29 7 345 329 322 319 317 312
78 62 93 74 115 92 107 107 108 104 136 134 109 82 93 38 96 64 98 100 249 191 210 311 125 127 136 141 138 136 126 109 86 67 45 19 358 348 345 341 336 329 322 316
64 62 91 124 99 112 95 109 110 128 127 109 90 98 79 73 110 84 200 142 213 211 127 115 141 149 145 151 149 137 99 65 48 29 13 1 349 344 339 335 329 321 314 308
57 53 100 108 100 95 112 124 126 145 123 93 103 85 185 111 66 108 65 180 184 146 130 110 101 109 132 147 153 188 266 16 359 358 350 345 341 335 327 324 320 314 312 308
Wind_Speed_850mb
72 64 60 62 64 61 59 30 6 35 37 9 4 8 11 2 9 1 7 9 7 10 6 7 5 9 4 3 3 7 2 10 5 3 4 5 5 7 9 9 6 3 6 11
71 65 63 67 70 68 62 19 11 30 39 8 3 6 4 3 5 4 5 6 5 6 9 10 5 5 2 2 3 11 10 3 6 12 11 7 4 5 8 11 6 10 10 11
70 65 65 72 74 72 56 25 6 7 14 9 14 9 7 3 4 3 9 9 10 9 8 11 10 6 2 3 5 10 8 6 10 14 9 6 7 7 7 10 6 8 12 7
66 63 68 78 77 75 49 17 8 15 7 4 6 8 13 8 5 3 7 9 7 9 8 5 7 4 4 7 6 5 6 7 5 4 6 3 3 9 12 13 9 11 8 13
62 64 71 80 80 77 44 18 12 10 9 34 12 4 12 14 4 6 5 12 4 4 11 12 17 12 7 8 5 6 6 5 4 3 8 11 6 10 13 9 7 14 6 13
63 64 73 81 83 79 39 17 21 22 3 8 11 11 13 15 12 9 6 16 10 6 3 9 25 15 21 13 11 5 6 9 6 7 8 9 12 18 18 11 10 14 12 16
59 62 71 77 83 80 42 24 22 11 4 6 12 14 6 10 6 14 6 13 11 20 57 54 45 49 45 41 26 10 9 8 5 4 6 4 11 3 11 13 10 11 5 9
55 61 69 74 80 78 45 26 16 10 4 6 5 14 13 28 19 9 8 6 17 46 11 9 10 10 11 10 14 15 8 9 7 7 6 12 9 9 13 14 14 17 13 11
53 59 65 70 75 79 44 21 23 8 25 10 13 12 13 10 8 6 8 16 57 5 10 8 9 8 9 2 4 11 10 12 8 5 8 12 11 4 11 9 10 18 27 27
51 56 61 64 70 76 49 25 18 9 14 11 23 8 15 18 13 8 10 17 8 5 5 6 6 6 7 8 10 5 5 6 9 4 5 15 11 8 8 11 13 22 40 48
50 55 57 61 65 63 47 24 19 11 14 15 13 15 19 21 19 10 21 11 2 7 7 7 7 6 9 4 8 12 14 13 8 6 4 15 19 7 14 10 12 25 42 46
48 52 54 58 60 55 57 18 17 21 16 25 31 24 18 15 16 28 32 11 11 14 9 2 6 4 3 5 5 3 5 12 9 17 11 8 33 11 27 9 11 22 37 41
47 47 46 49 51 51 51 42 30 27 43 28 18 24 23 19 19 21 16 11 16 14 13 17 5 6 8 8 11 5 8 12 5 4 8 22 29 44 41 21 23 20 26 35
42 42 42 43 43 39 35 39 33 24 21 13 8 15 17 16 17 14 13 15 27 27 16 10 6 6 16 6 6 6 8 14 9 10 21 19 35 36 41 37 28 22 29 28
40 38 38 38 38 37 36 36 25 26 8 13 15 22 19 16 12 12 13 20 26 17 10 6 5 10 8 3 4 6 18 13 9 12 18 12 16 19 22 28 27 27 27 26
42 38 38 38 38 36 34 15 17 20 23 15 5 9 11 17 16 18 21 17 13 9 8 6 9 8 7 6 6 17 22 29 28 12 13 17 20 17 17 22 23 25 25 25
39 38 36 33 32 32 13 14 22 20 17 9 8 5 6 11 11 9 8 9 7 5 7 5 8 7 8 5 8 5 6 15 18 19 17 11 14 5 16 17 20 26 24 27
34 33 31 29 25 29 29 27 24 22 12 9 7 3 5 7 4 4 3 5 6 9 5 5 6 9 5 6 11 14 14 12 10 8 5 7 11 19 21 25 32 36 27 13
32 31 29 27 18 12 18 21 17 12 8 10 6 9 7 5 6 6 5 5 6 1 2 3 5 2 7 5 15 15 12 9 8 3 5 13 24 30 36 37 32 22 11 9
34 33 10 10 16 32 25 9 5 5 8 8 8 7 5 4 5 6 5 8 2 2 5 2 3 4 9 22 18 19 23 15 15 20 31 37 44 42 29 24 19 4 7 9
24 8 11 30 27 9 7 8 11 10 9 9 6 6 7 5 5 4 4 4 2 1 7 5 2 4 7 16 20 19 16 18 19 21 35 28 30 28 20 10 2 7 14 17
14 22 33 18 7 9 11 4 3 3 6 3 5 7 8 6 5 10 5 6 2 7 8 2 4 2 14 20 28 32 32 34 37 37 38 32 24 17 9 9 14 17 19 22
34 10 9 4 6 9 8 10 2 3 9 10 8 5 6 6 5 10 4 6 6 14 3 5 1 20 27 32 35 42 40 42 39 32 24 16 8 7 11 13 15 20 23 26
7 6 8 4 4 4 3 2 5 6 8 15 14 11 5 4 5 4 6 2 4 6 6 5 1 24 24 23 28 29 32 26 22 16 9 7 8 9 11 15 20 25 29 30
9 8 5 4 9 9 11 14 12 11 16 18 15 11 5 5 5 2 5 3 3 4 5 0 17 25 24 23 23 31 24 14 10 9 9 10 12 15 18 21 25 31 36 41
9 10 9 17 11 6 10 17 16 17 20 17 9 5 4 3 3 4 4 6 7 5 2 15 23 21 21 22 26 19 11 9 9 10 11 13 16 21 25 29 32 36 40 46
8 8 19 18 21 12 9 11 9 17 9 3 6 6 6 4 5 1 1 7 4 27 24 17 13 12 18 24 18 7 5 4 7 10 12 16 21 26 32 41 46 49 50 52
Wind_Direction_850mb
197 194 189 186 185 181 177 179 133 171 166 101 82 162 195 268 272 170 85 98 103 140 122 92 117 160 178 354 238 105 62 121 119 197 265 239 196 150 133 114 200 78 140 274
193 192 187 186 183 181 171 174 118 166 174 140 213 262 190 219 298 360 106 111 103 80 123 102 119 126 348 9 85 163 178 32 68 355 350 337 193 116 102 104 88 192 137 262
189 189 186 185 181 180 173 171 98 133 179 154 146 154 147 258 287 47 81 117 92 100 69 28 144 135 13 55 100 108 107 105 157 187 199 169 174 163 142 123 122 184 224 248
187 186 186 183 181 180 178 180 181 160 183 215 179 138 161 176 180 97 52 54 78 137 114 77 110 127 127 63 126 66 96 128 115 69 6 344 235 184 175 185 186 178 239 212
184 187 184 181 180 180 187 159 143 136 147 154 129 155 191 162 130 41 51 110 79 66 148 178 190 143 185 185 62 79 14 152 119 187 0 23 294 263 216 222 211 265 268 275
185 185 182 181 181 181 185 167 148 171 106 118 118 197 170 193 128 45 74 147 105 62 134 102 109 115 111 118 131 114 79 123 93 261 357 345 328 223 205 197 187 158 191 227
181 181 181 181 182 183 183 177 160 134 176 147 182 169 144 146 175 142 78 112 98 125 113 101 89 78 74 67 44 71 117 93 70 186 17 353 240 250 213 207 205 192 187 192
176 177 178 181 183 182 188 184 176 155 123 175 125 138 117 106 87 79 86 56 132 139 117 67 51 354 20 16 37 23 66 116 90 138 202 299 287 194 168 173 265 192 191 146
172 173 176 180 183 184 185 194 187 176 128 225 144 138 160 136 117 52 76 110 153 118 74 74 130 192 206 256 40 45 58 64 111 106 144 221 242 253 165 115 296 201 172 166
165 168 172 176 180 186 190 195 197 194 116 137 152 142 163 140 114 106 126 142 188 64 70 82 135 225 183 178 174 185 28 14 159 125 224 288 241 183 138 99 238 177 191 187
159 164 167 172 176 178 186 195 199 183 117 108 153 141 154 151 149 134 155 91 297 50 71 120 204 144 216 128 172 175 173 158 197 100 72 277 177 109 166 217 184 188 197 204
152 154 161 164 165 174 183 203 179 138 119 118 113 116 143 162 149 139 159 161 154 153 91 68 102 130 138 134 234 82 238 192 181 186 215 240 198 229 217 242 232 214 212 212
146 145 150 156 161 161 163 196 162 143 112 103 107 94 102 135 148 154 137 165 161 162 132 145 150 138 135 164 235 202 246 174 207 85 256 238 246 239 251 262 258 260 222 205
142 142 139 145 155 164 174 169 155 147 120 108 87 107 100 96 140 143 158 184 166 151 142 112 138 144 193 199 189 180 210 153 178 260 276 270 265 253 256 258 248 215 195 196
136 139 133 139 144 147 156 154 134 146 134 132 121 103 77 84 102 154 135 153 157 149 123 101 191 143 125 59 63 252 191 187 169 230 250 238 273 285 267 242 216 195 189 175
135 136 135 136 138 143 144 100 110 118 109 107 101 121 112 111 113 133 145 155 153 149 139 140 144 142 157 134 205 258 239 244 256 281 294 259 269 280 251 212 191 192 186 157
134 135 138 140 144 151 123 122 136 131 116 95 80 33 117 147 141 123 115 130 119 113 117 87 129 136 157 130 218 312 312 301 285 279 274 262 256 256 180 182 175 159 147 139
134 135 135 135 131 119 99 109 126 134 107 90 108 281 112 150 129 105 96 118 119 60 106 124 116 128 117 240 269 316 332 330 312 218 296 297 176 153 155 155 146 137 125 134
134 132 127 120 114 86 105 110 118 125 99 106 88 134 207 147 96 80 76 84 63 51 103 100 128 108 225 311 336 336 349 337 329 193 90 130 136 126 128 127 114 118 122 194
137 134 96 90 104 118 115 77 81 76 49 66 84 115 112 115 95 66 85 32 82 78 258 124 126 241 309 351 333 308 285 292 188 150 116 129 117 116 109 93 88 135 196 253
133 98 67 117 117 93 77 67 49 8 31 35 67 81 123 99 108 134 48 141 96 116 269 187 281 263 17 49 61 59 80 134 148 144 121 114 102 92 92 117 143 288 297 300
119 111 109 111 79 63 74 36 51 59 190 91 98 96 94 98 110 98 125 127 127 238 149 105 239 89 104 103 91 92 98 100 95 94 95 96 94 85 52 341 318 314 313 310
127 108 117 90 36 81 150 166 212 167 175 161 147 83 96 113 87 90 113 163 214 129 168 220 94 120 119 120 97 93 94 98 101 102 98 91 72 354 336 330 321 314 309 306
92 71 75 73 102 68 110 75 95 129 141 140 130 92 92 98 84 121 160 147 130 206 213 220 132 140 149 127 110 119 120 112 106 99 80 48 29 7 345 329 322 319 317 312
78 62 93 74 115 92 107 107 108 104 136 134 109 82 93 38 96 64 98 100 249 191 210 311 125 127 136 141 138 136 126 109 86 67 45 19 358 348 345 341 336 329 322 316
64 62 91 124 99 112 95 109 110 128 127 109 90 98 79 73 110 84 200 142 213 211 127 115 141 149 145 151 149 137 99 65 48 29 13 1 349 344 339 335 329 321 314 308
57 53 100 108 100 95 112 124 126 145 123 93 103 85 185 111 66 108 65 180 184 146 130 110 101 109 132 147 153 188 266 16 359 358 350 345 341 335 327 324 320 314 312 308